Regional Weather Roundup
Issued by NWS

Home | Current Version | Previous Version | Graphics & Text | Print | Product List | Glossary On
Versions: 1 2 3 4 5 6 7 8 9 10 11 12 13 14 15 16 17 18 19 20 21 22 23 24 25 26 27 28 29 30 31 32 33 34 35 36 37 38 39 40 41 42 43 44 45 46 47 48 49 50
000
ASUS43 KDMX 310907
RWRIA

WEATHER ROUNDUP FOR IOWA
NATIONAL WEATHER SERVICE DES MOINES IA
400 AM CDT MON AUG 31 2015

NOTE: "FAIR" INDICATES FEW OR NO CLOUDS BELOW 12,000 FEET WITH NO
SIGNIFICANT WEATHER AND/OR OBSTRUCTIONS TO VISIBILITY.

* - THESE STATIONS ARE NOT NWS STATIONS...THUS NOT UNDER NWS
QUALITY CONTROL.  THEY ALSO DO NOT REPORT WEATHER SUCH
AS PRECIPITATION OR FOG.

IAZ001>003-012>014-020>022-031>034-043>046-311000-
   NORTHWEST IOWA

CITY           SKY/WX    TMP DP  RH WIND       PRES   REMARKS
CARROLL *      FOG       59  59 100 CALM      29.97S VSB 1/4
CHEROKEE *     CLEAR     63  63 100 S6        29.95S FOG
DENISON *      CLOUDY    66  64  94 SE8       29.94F FOG
LE MARS *      PTCLDY    66  66 100 S9        29.93S
ORANGE CITY *  CLEAR     64  64 100 S6        29.93S FOG
SHELDON *      CLOUDY    66  64  94 S7        29.92S FOG
SPENCER        CLEAR     63  61  93 S7        29.95S FOG
STORM LAKE *   FOG       63  63 100 S7        29.97S VSB 0
$$

IAZ055>058-069>071-079>083-090>094-311000-
   SOUTHWEST IOWA

CITY           SKY/WX    TMP DP  RH WIND       PRES   REMARKS
ATLANTIC *     FOG       61  61 100 N5        29.97S VSB 3/4
AUDUBON *      FOG       59  57  94 CALM      29.98S VSB 1/4
CLARINDA *     MOCLDY    64  64 100 CALM      29.98S FOG
COUNCIL BLFS * CLEAR     66  66 100 SE6       29.96S FOG
CRESTON *      CLEAR     66  64  94 SE5       29.99F FOG
HARLAN  *      FOG       57 N/A N/A CALM      29.99F VSB 1/4
LAMONI         CLEAR     70  67  90 E5        29.98S
RED OAK *      FOG       64  64 100 CALM      29.96S VSB 3/4
SHENANDOAH *   PTCLDY    66  66 100 CALM      29.96S FOG
$$

IAZ047>049-059>061-072>074-084-311000-
   CENTRAL IOWA

CITY           SKY/WX    TMP DP  RH WIND       PRES   REMARKS
AMES           FOG       63  63 100 CALM      29.99S VSB 1/4
ANKENY *       FOG       63  63 100 N3        29.98S VSB 1/4
CHARITON *     PTCLDY    66  66 100 SE5       29.99S
DES MOINES     CLEAR     69  65  86 SE6       29.98R
GRINNELL*        N/A     63  63 100 E5        30.01S FOG
KNOXVILLE *    CLEAR     66  64  94 SE6       29.98S FOG
MARSHALLTOWN   FOG       60  60 100 SE5       29.99S VSB 1/4
PELLA *        CLEAR     66  66 100 SE5       30.00S FOG
PERRY *        FOG       63  61  94 E3        29.98F VSB<1/4
$$

IAZ004>006-015-016-023>025-035-036-311000-
   NORTH CENTRAL IOWA

CITY           SKY/WX    TMP DP  RH WIND       PRES   REMARKS
ALGONA *       FOG       64  64 100 S9        29.97F VSB 0
CLARION *      FOG       66  64  94 S9        29.99S VSB 3/4
ESTHERVILLE    PTCLDY    62  62 100 S9        29.94F FOG
FORT DODGE *     N/A     63  61  94 CALM      29.98F VSB 3/4
MASON CITY     FOG       61  61 100 S6        30.00S VSB 1/4
FOREST CITY *  FOG       61  61 100 CALM      29.99S VSB 1/4
IOWA FALLS *   FOG       61  59  94 SE3       30.01S VSB 1/4
$$

IAZ007>011-017>019-026>030-037>042-050>054-066-311000-
   NORTHEAST IOWA

CITY           SKY/WX    TMP DP  RH WIND       PRES   REMARKS
CEDAR RAPIDS   CLEAR     59  59 100 E3        30.01R FOG
CHARLES CITY * CLOUDY    63  63 100 S6        30.01S VSB 0
CLINTON *        N/A     57  57 100 E6        30.05S VSB 3/4
DECORAH *      MOCLDY    64  64 100 VRB6      30.00F FOG
DUBUQUE        PTCLDY    58  57  97 CALM      30.04R
MONTICELLO *   FOG       57  57 100 CALM      30.02S VSB 1/4
OELWEIN *      FOG       59  59 100 SE6       30.02F VSB 1/4
WATERLOO       CLEAR     57  57 100 CALM      30.00S FOG
$$

IAZ064-065-067-068-078-311000-
   EAST CENTRAL IOWA

CITY           SKY/WX    TMP DP  RH WIND       PRES   REMARKS
DAVENPORT      CLEAR     62  61  96 SE6       30.02S FOG
IOWA CITY      FOG       61  60  97 CALM      30.02S VSB 1/4
MT. PLEASANT * CLEAR     66  63  88 CALM      30.01R FOG
MUSCATINE *    FOG       61  61 100 CALM      30.02R VSB 1/2
QUAD CITIES    CLEAR     62  59  90 E3        30.02S
$$

IAZ062-063-075>077-085>089-095>099-311000-
   SOUTHEAST IOWA

CITY           SKY/WX    TMP DP  RH WIND       PRES   REMARKS
BURLINGTON     CLEAR     68  67  96 SE5       30.00F
FAIRFIELD *    FOG       63  63 100 CALM      30.00S VSB 3/4
FORT MADISON * FOG       63  63 100 CALM      30.01F VSB 3/4
KEOKUK *       CLEAR     66  66 100 E5        29.99F FOG
OSKALOOSA *      N/A     64  63  94 SE5       30.00S FOG
CENTERVILLE *  PTCLDY    64  64 100 E5        30.01S FOG
OTTUMWA        CLEAR     63  63 100 E5        29.98S FOG
WASHINGTON *     N/A    N/A N/A N/A MISG        N/A
$$

ABBREVIATIONS USED IN REMARKS
   TC - TEMPERATURES IN CELSIUS
  WCI - WIND CHILL INDEX
   HX - HEAT INDEX
  VSB - VISIBILITY
$$




USA.gov is the U.S. government's official web portal to all federal, state and local government web resources and services.